User: anonymous   Login
Location: Bassano
(45.7667°N, 11.7333°E)
Time: 12:28:14
(UTC+00:00)
Language:

Cosmos 2221 - Orbit

View from above orbital plane
View from above orbital plane
View from above satellite
View from above satellite

Ground track
Ground track

The orbit data is extracted from the following two-line orbital elements,

1 22236U 92080A   21163.12615271  .00000173  00000-0  16096-4 0  9999
2 22236  82.5071 123.7739 0015849 202.7250 157.3268 14.88059509543808
Epoch (UTC): 12 June 2021 03:01:39
Eccentricity: 0.0015849
inclination: 82.5071°
perigee height: 593 km
apogee height: 615 km
right ascension of ascending node: 123.7739°
argument of perigee: 202.7250°
revolutions per day: 14.88059509
mean anomaly at epoch: 157.3268°
orbit number at epoch: 54380

The dashed part of the orbit path shows where the satellite is in the earth's shadow,  

DLR